RH
26 26 27 27 27 28 28 29 30 31 32 32 33 34 35 36 38 42 41 40 42 43 46 46 42 44 41 38 46 53 53 53 52 48 47 46 40 35 32 30 29 29 28 26 26 26 26 25 24 24 25 23 21 20 18 16 15 14 14 14 13 14 14 14 14 14 15 15 16 17 18 18 18 18 17 16 16 15 16 17 20 27 35 43 53 60
26 26 26 27 27 27 28 29 30 31 32 33 33 34 35 37 38 43 42 39 42 41 45 49 46 49 49 43 49 57 59 61 58 54 52 46 40 35 32 31 30 30 30 29 28 27 26 25 23 22 22 21 20 19 18 17 16 15 15 14 13 12 11 11 11 11 11 12 13 14 15 16 17 18 18 18 18 17 17 16 17 18 20 23 29 37
25 25 26 26 26 27 28 29 29 29 30 31 33 33 35 36 36 42 45 43 44 42 42 45 43 47 49 46 49 55 60 62 60 57 52 45 39 34 31 30 30 30 30 28 26 23 22 21 20 18 16 16 16 16 17 17 18 17 16 14 12 10 9 8 8 8 9 9 10 11 12 13 14 15 16 17 18 18 18 17 17 17 17 17 18 21
24 24 25 26 27 28 29 30 30 31 32 32 33 33 34 36 35 37 40 43 45 46 43 38 35 37 42 46 53 59 63 63 59 55 49 42 36 32 32 32 30 28 26 24 23 22 19 17 16 15 14 13 13 13 14 14 14 14 13 11 8 7 5 5 5 5 6 6 7 8 9 10 10 11 12 13 14 15 16 16 16 17 17 18 17 18
25 26 26 27 28 29 31 32 33 35 36 35 36 36 35 37 38 36 35 36 40 45 46 41 37 38 41 44 53 64 69 68 64 58 49 40 37 37 37 34 29 26 24 22 20 18 16 14 12 12 12 12 12 11 10 10 9 8 8 7 6 5 4 4 4 4 4 4 5 6 6 7 8 9 10 11 11 12 13 13 13 14 15 16 17 17
28 29 29 29 30 31 32 33 35 36 37 37 36 38 39 40 43 45 43 41 45 51 53 47 41 43 47 49 56 67 70 68 63 53 43 37 35 34 32 27 24 23 21 19 17 16 15 14 13 13 12 12 10 9 8 8 7 6 5 5 5 4 4 3 3 3 3 3 3 4 4 5 5 6 7 8 9 9 10 10 11 11 11 12 14 15
31 32 32 32 33 33 34 35 36 36 37 39 39 42 47 48 49 51 50 49 54 61 65 60 50 49 55 59 61 61 55 49 43 35 30 27 25 24 22 20 20 20 19 17 16 16 15 15 14 14 14 12 9 8 8 8 7 6 5 5 5 4 4 4 3 3 3 3 3 3 3 4 4 5 5 6 7 7 8 8 8 9 10 10 11 12
32 33 34 35 35 35 36 36 37 38 40 41 41 44 48 51 54 55 56 59 67 74 78 72 60 51 50 52 50 45 39 31 25 23 23 22 20 19 18 18 17 16 16 15 14 14 13 13 12 12 10 9 8 7 7 8 8 7 7 6 6 5 5 4 3 3 3 3 3 3 3 3 3 3 4 4 5 5 6 6 6 7 8 9 10 11
33 35 37 37 38 37 37 36 36 37 39 40 40 44 49 55 61 63 63 68 74 76 72 62 58 56 49 47 44 37 29 21 19 20 20 19 18 17 17 15 14 13 12 10 9 9 8 8 8 7 6 5 6 5 5 5 6 6 5 5 5 5 5 4 4 3 3 3 3 3 3 3 3 3 3 4 4 4 5 5 5 5 6 6 8 9
38 39 39 39 38 38 39 38 37 37 38 40 40 44 51 56 61 61 60 61 60 63 61 50 50 52 46 43 42 32 23 21 23 21 18 17 16 14 13 11 10 8 7 6 6 6 5 5 5 4 4 4 4 4 4 4 4 4 4 4 4 4 4 3 3 3 3 3 3 3 3 3 3 3 2 3 3 3 4 4 4 5 4 5 5 6
42 40 40 40 38 38 40 40 39 38 38 39 37 38 45 50 53 54 55 53 48 52 57 49 47 55 59 62 53 33 25 27 25 20 18 17 14 11 10 9 8 7 6 6 5 4 4 4 4 4 3 4 3 3 3 3 3 3 3 3 3 3 3 3 3 3 3 3 2 2 2 3 2 3 2 2 2 3 3 3 4 4 4 4 4 4
40 39 37 38 38 36 38 39 38 37 36 37 35 32 36 40 45 48 49 47 43 47 50 42 44 58 74 79 57 31 26 28 22 19 18 14 11 9 8 7 7 6 6 5 4 4 3 3 3 3 3 3 3 3 3 3 3 2 2 3 2 2 2 2 2 2 2 2 2 2 2 2 2 2 2 2 2 2 2 3 3 3 3 3 3 3
38 37 34 33 34 33 34 36 37 35 35 38 35 30 31 32 34 36 37 34 33 43 50 46 45 55 66 62 40 24 24 22 17 16 13 10 8 6 6 6 6 6 5 4 4 3 3 3 3 3 3 2 2 3 2 2 2 2 2 2 2 2 2 2 2 2 2 2 2 2 2 2 2 2 2 2 2 2 2 2 2 3 3 3 3 3
37 36 35 32 30 30 30 31 33 31 32 36 33 28 28 29 26 25 25 21 20 31 43 47 50 61 67 52 29 21 20 15 14 13 9 8 6 5 5 5 4 5 4 3 3 3 2 3 3 2 2 2 2 2 2 2 2 2 2 2 2 2 2 2 2 2 2 2 2 2 2 2 2 2 2 2 2 2 2 2 2 2 3 3 3 3
39 34 34 34 30 29 29 31 34 33 31 36 36 31 30 31 28 24 22 19 16 19 27 35 44 58 61 42 23 19 18 14 13 10 7 6 5 5 5 4 4 3 3 3 2 3 3 2 2 2 2 2 2 2 2 2 2 2 2 2 2 2 2 2 2 2 2 2 2 2 2 2 2 2 2 2 2 2 2 2 2 2 2 2 3 3
48 39 35 35 33 30 30 31 33 33 32 36 39 35 33 35 32 27 25 24 20 18 23 32 42 57 56 34 20 19 15 12 10 7 6 5 5 5 4 4 4 3 2 3 2 2 2 2 2 2 2 2 2 2 2 2 2 2 2 2 2 2 2 2 2 2 2 2 2 2 2 2 2 2 2 2 2 2 2 2 2 2 2 2 2 2
55 49 41 38 36 32 30 30 30 31 31 31 34 33 32 36 36 30 25 25 23 20 25 29 37 51 46 23 15 15 11 10 9 6 6 5 5 5 4 4 3 3 3 3 2 2 2 2 2 2 2 2 2 2 2 2 2 2 2 2 2 2 2 2 2 2 2 2 2 2 2 2 2 2 2 2 2 2 2 2 2 2 2 2 2 2
56 57 50 43 39 34 31 30 28 29 29 28 30 32 32 34 38 34 24 21 20 17 19 21 28 42 34 15 12 13 10 9 7 6 5 4 5 5 4 3 2 2 3 2 3 2 2 2 2 2 2 2 2 2 2 2 2 2 2 2 2 2 2 2 2 2 2 2 2 2 2 2 2 2 2 2 2 2 2 2 2 2 2 2 2 2
54 59 58 51 44 39 34 31 28 26 27 28 29 29 30 31 33 35 28 22 18 14 12 13 24 37 27 12 13 12 9 9 6 5 5 4 5 4 3 3 2 3 3 3 3 2 2 2 2 2 2 2 2 2 2 2 2 2 2 2 2 2 2 2 2 2 2 2 2 2 2 2 2 2 2 2 2 2 2 2 2 2 2 2 2 2
56 57 60 58 50 43 39 34 31 28 26 28 30 28 29 30 30 32 30 28 25 18 11 8 20 32 21 11 13 11 8 8 5 5 5 4 4 3 3 4 3 3 4 3 3 3 2 2 2 2 2 2 2 2 2 2 2 2 2 2 2 2 2 2 2 2 2 2 2 2 2 2 2 2 2 2 2 2 2 2 2 2 2 2 2 2
61 60 62 63 57 49 43 38 34 31 27 28 31 30 28 28 28 28 27 32 34 27 15 8 17 29 21 11 13 11 7 7 5 4 5 5 4 3 4 4 4 4 4 3 3 2 2 2 2 2 2 2 2 2 2 2 2 2 2 2 2 2 2 2 2 2 2 2 2 2 2 2 2 2 2 2 2 2 2 2 2 2 2 2 2 2
64 64 63 67 63 53 46 40 35 32 28 26 28 30 28 27 28 27 23 26 34 34 22 13 21 30 22 12 13 11 8 7 5 5 5 5 5 4 4 4 4 4 3 3 3 2 2 2 2 3 2 2 2 2 2 2 2 2 2 2 2 2 2 2 2 2 2 2 2 2 2 2 2 2 2 2 2 2 2 2 2 2 2 2 2 2
66 66 64 68 71 61 51 44 37 32 27 23 24 26 27 26 28 28 23 22 30 36 26 15 19 27 20 12 12 10 7 6 5 6 6 5 5 5 5 5 4 4 3 3 3 2 2 2 2 2 2 2 2 2 2 2 2 2 2 2 2 2 2 2 2 2 2 2 2 2 2 2 2 2 2 2 2 2 2 2 2 2 2 2 2 2
75 73 65 64 72 72 63 52 43 35 29 24 21 21 24 25 26 27 24 23 31 37 31 16 14 21 18 11 10 8 6 5 5 6 6 5 5 5 5 5 4 3 3 2 2 2 2 2 2 2 2 2 2 2 2 2 2 2 2 2 2 2 2 2 2 2 2 2 2 2 2 2 2 2 2 2 2 2 2 2 2 2 2 2 2 2
86 86 77 64 63 66 61 52 45 37 31 27 23 20 22 24 24 24 22 24 27 32 35 23 13 16 15 9 7 6 5 5 5 6 6 4 5 5 5 5 4 3 3 2 2 2 2 2 2 2 2 2 2 2 2 2 2 2 2 2 2 2 2 2 2 2 2 2 2 2 2 2 2 2 2 2 2 2 2 2 2 2 2 2 2 2
94 97 93 78 67 65 58 48 44 37 30 29 26 22 22 23 24 23 21 23 21 22 32 31 18 13 12 8 7 5 4 4 5 6 5 4 5 5 5 5 4 3 3 3 3 2 2 2 2 2 2 2 2 2 2 2 2 2 2 2 2 2 2 2 2 2 2 2 2 2 2 2 2 3 3 3 3 3 3 3 3 2 2 2 2 2
103 104 104 92 79 78 72 57 48 42 33 29 27 24 22 22 25 23 19 22 20 16 24 30 22 14 12 9 7 5 4 4 4 5 5 4 5 5 5 5 4 3 3 3 3 2 3 3 2 2 2 2 2 2 2 2 2 2 2 2 2 2 3 3 2 2 3 2 2 2 2 3 3 3 3 3 3 3 3 3 3 3 3 2 2 2
106 107 110 103 86 83 83 67 53 46 37 29 27 26 24 23 26 24 20 22 23 16 15 19 17 13 10 8 6 5 4 3 4 5 4 4 4 4 5 4 3 3 3 2 3 2 2 3 2 2 2 2 2 2 2 2 2 2 2 3 3 3 3 3 3 3 3 3 3 2 2 3 3 3 3 3 3 3 3 3 3 3 3 3 3 2
106 105 109 108 95 84 81 70 54 46 38 30 27 26 26 25 25 25 21 22 25 21 17 16 16 14 11 8 6 5 4 3 3 4 4 4 5 5 5 5 4 3 3 2 3 2 2 3 3 2 2 2 2 2 2 2 2 2 2 3 3 3 3 3 3 3 3 3 3 3 3 3 3 3 3 3 4 4 4 4 4 4 3 3 3 3
106 107 107 109 106 94 81 67 54 45 37 31 27 25 24 24 24 23 21 20 23 24 23 20 18 18 15 10 7 5 4 3 2 4 5 5 5 5 5 5 4 3 2 2 2 2 2 3 3 3 2 2 2 2 2 2 2 2 2 3 3 3 3 3 3 3 3 3 3 3 3 3 3 3 3 3 4 4 4 4 4 4 4 4 4 3
105 106 107 109 109 103 85 64 51 45 36 29 25 22 21 22 24 22 18 17 16 17 19 18 16 16 15 10 7 5 4 3 3 4 5 5 5 5 5 5 4 3 3 2 2 2 3 3 3 3 2 2 2 2 2 2 2 2 2 2 3 3 3 3 3 3 3 3 3 3 3 3 3 3 3 3 3 3 4 4 4 4 4 4 4 4
102 100 103 105 104 102 91 70 53 41 33 27 23 20 20 21 23 22 19 18 16 12 12 13 12 12 11 8 6 5 4 4 3 3 3 4 4 4 4 5 5 4 3 3 2 2 2 3 3 3 3 2 2 2 2 2 2 2 2 2 2 2 2 3 3 3 3 3 3 3 3 3 3 3 3 3 3 3 3 3 4 4 4 4 4 4
101 95 96 99 97 94 90 80 64 44 30 25 22 19 18 18 20 20 18 17 17 15 12 11 11 10 9 7 6 5 5 3 2 2 2 3 4 4 4 4 4 4 3 3 3 2 2 3 2 2 2 2 2 2 2 2 2 2 2 2 2 2 2 3 3 3 3 3 3 3 3 3 3 3 3 3 3 3 3 3 3 4 4 4 4 4
100 94 91 95 93 88 84 80 69 51 34 24 21 18 16 15 17 19 18 15 16 16 14 13 11 9 8 8 6 5 4 3 2 2 2 3 4 4 4 4 4 4 3 2 2 2 2 2 2 2 2 2 2 3 2 2 2 2 2 2 2 2 2 2 3 3 3 3 3 3 3 3 3 3 3 4 4 4 3 3 3 3 3 4 4 4
100 96 90 92 92 85 79 73 67 57 41 26 20 18 16 14 15 18 19 17 14 14 13 11 9 8 7 7 7 6 5 4 3 3 3 3 4 4 4 4 4 4 3 3 2 2 2 2 2 3 3 2 3 3 3 3 2 2 2 2 2 3 2 2 3 2 3 3 3 3 3 3 3 3 3 3 4 4 4 3 3 4 3 3 3 4
98 97 91 91 92 84 76 72 67 59 45 30 21 17 15 14 14 14 16 16 13 12 11 9 8 8 7 6 6 6 6 6 5 4 3 3 4 4 4 4 4 4 3 3 2 2 2 3 3 3 2 3 3 3 3 3 3 2 3 3 2 2 2 2 2 2 3 3 3 3 3 3 3 3 3 3 3 4 4 4 4 3 3 4 4 4
99 100 96 94 96 91 79 69 63 55 45 34 23 17 15 14 13 12 13 13 12 11 9 8 7 7 6 5 5 5 5 6 6 6 5 4 4 4 4 3 4 4 4 3 2 2 2 2 2 2 2 2 2 3 3 3 3 3 3 3 2 2 2 2 2 2 3 3 3 3 3 3 3 3 3 3 3 3 3 3 4 3 3 4 4 4
103 106 104 99 100 99 85 69 60 51 43 35 25 18 15 13 13 13 12 12 12 10 9 8 7 6 5 5 4 4 4 5 5 5 5 5 4 4 4 4 4 4 4 3 2 2 2 2 2 2 2 2 2 3 3 3 3 3 3 3 3 3 2 2 2 3 3 3 3 3 3 3 3 3 3 3 3 3 3 3 4 4 4 4 4 4
102 101 100 99 101 103 95 80 67 54 45 37 27 19 16 14 13 13 12 12 11 10 8 7 6 5 5 4 4 3 3 3 4 4 4 4 5 4 4 4 4 4 4 3 3 2 2 2 3 2 2 2 2 2 2 3 3 3 3 3 3 3 3 3 3 3 3 3 3 3 3 3 3 3 3 3 3 3 3 3 3 3 3 4 4 4
104 100 103 104 102 103 100 88 72 57 46 38 29 20 15 14 13 12 11 11 9 9 8 6 5 5 4 4 4 3 3 3 3 3 4 4 4 4 4 4 4 4 4 3 3 2 2 2 2 2 2 2 2 2 3 3 3 3 3 3 3 3 3 3 3 3 3 3 3 3 3 3 3 3 3 3 3 3 3 3 3 3 4 4 4 4
106 104 106 106 101 102 104 92 73 58 47 36 28 21 15 13 12 11 10 10 8 8 7 6 5 5 4 4 4 3 3 3 3 3 4 4 4 4 4 4 4 4 4 3 3 2 2 2 2 2 2 2 2 2 3 3 3 3 3 3 3 3 3 3 3 3 3 3 3 3 3 3 3 3 3 3 3 3 3 3 3 3 3 3 4 4
104 101 102 106 103 102 104 93 73 57 45 34 26 20 15 12 11 10 10 10 9 8 7 6 5 4 4 4 4 4 4 3 3 4 4 4 4 4 4 4 4 4 4 3 3 2 2 2 2 2 2 2 2 3 3 3 3 3 3 4 3 3 3 3 3 3 3 3 3 2 3 2 3 3 3 3 3 3 3 3 3 3 3 3 4 4
104 102 103 107 104 98 101 102 88 65 46 33 24 19 15 12 11 10 10 10 9 8 7 6 5 4 4 4 4 4 4 3 4 4 4 4 4 3 4 4 4 4 4 3 3 2 2 2 2 2 2 2 2 3 3 3 3 3 3 4 3 3 3 3 3 3 3 3 3 2 2 2 3 3 3 3 3 3 3 3 3 3 3 3 3 3
105 104 102 105 106 102 104 110 101 75 49 34 24 18 14 12 11 10 10 9 9 9 7 6 5 4 4 4 4 4 4 3 4 4 4 4 4 3 4 4 4 4 4 3 3 2 2 2 2 2 2 2 2 3 3 3 3 3 3 4 3 3 3 3 3 3 3 3 2 2 3 3 3 3 3 3 3 3 3 3 3 3 3 3 3 3
104 104 104 106 108 106 104 107 104 83 57 38 26 18 14 12 11 10 10 10 10 9 7 6 5 4 4 4 4 4 3 3 4 4 4 4 4 3 3 3 4 4 4 3 3 2 2 2 2 2 2 2 2 3 3 3 3 3 3 3 3 3 3 3 3 3 2 3 2 2 3 3 3 3 3 3 3 3 3 3 3 3 3 3 4 3
106 108 106 102 102 104 106 110 109 93 65 40 27 19 14 12 12 10 10 11 10 9 8 6 5 4 4 3 4 4 3 3 3 4 4 4 3 4 3 3 4 4 4 4 3 2 2 2 2 2 2 2 2 3 3 3 3 3 3 3 3 3 3 3 3 3 2 2 2 3 2 2 3 3 3 3 3 3 3 3 4 4 3 3 3 3
106 106 103 102 106 109 108 107 110 106 81 49 29 20 13 11 12 11 10 11 10 10 9 7 5 4 3 3 4 4 3 4 3 4 4 4 4 4 3 3 4 4 4 4 3 3 2 2 2 2 2 2 2 3 3 3 3 3 3 3 3 3 3 3 3 2 2 2 2 3 3 3 3 3 3 4 3 3 4 3 3 3 3 3 4 3
100 104 107 107 106 106 105 103 108 113 98 64 35 21 13 11 11 10 10 11 11 10 9 7 6 5 3 3 4 4 4 4 4 4 4 4 4 4 3 3 4 4 4 4 3 3 2 2 2 2 2 2 3 3 3 3 3 3 3 3 3 3 3 3 3 2 2 2 2 3 3 3 3 3 4 4 3 3 3 3 3 3 3 3 3 3
99 106 108 104 100 103 107 104 101 103 95 68 39 22 14 11 10 10 10 10 10 9 8 7 6 5 4 3 3 4 4 4 3 4 4 3 4 4 3 3 4 4 4 4 3 3 2 2 2 2 2 2 3 3 3 3 3 4 3 3 4 3 3 3 3 2 3 3 2 3 3 3 4 4 4 3 3 3 3 3 3 3 3 3 3 3
101 104 103 102 103 104 105 104 102 99 89 67 41 23 15 11 9 10 10 9 9 9 8 6 5 4 4 4 3 3 4 4 4 4 4 3 4 3 3 3 3 4 4 4 3 3 3 2 2 2 2 3 2 3 3 3 3 4 4 3 3 3 3 3 3 3 3 3 3 3 3 3 4 4 3 3 3 3 3 3 3 3 3 3 3 3
101 102 104 106 105 101 99 102 104 103 94 75 49 27 16 11 10 9 9 9 10 9 8 6 5 4 4 4 3 3 3 3 3 4 3 3 3 3 3 3 3 4 4 3 4 3 3 2 2 2 2 2 2 3 3 3 3 3 3 4 3 3 3 3 3 3 3 3 3 4 4 4 4 3 3 3 3 4 3 3 4 4 3 4 3 3
Wind_Speed
45 46 47 48 48 49 49 50 51 52 53 54 54 55 56 56 57 62 64 63 65 66 69 73 71 73 76 72 76 84 86 87 88 89 90 91 91 91 92 93 94 95 97 97 97 98 99 100 100 100 101 102 101 101 101 101 100 100 101 102 103 105 107 109 110 112 114 116 119 121 124 125 127 128 129 129 129 129 129 129 130 131 132 132 133 133
45 46 47 47 48 48 49 50 50 51 52 53 55 55 56 57 57 62 65 64 66 66 67 73 72 74 79 77 77 84 88 90 90 91 93 93 93 93 93 94 95 96 96 97 97 97 98 100 101 101 101 101 101 101 101 102 102 102 103 104 105 106 107 108 110 111 112 113 115 117 119 121 123 126 127 128 129 130 130 130 131 131 132 133 133 134
45 46 47 48 49 50 50 51 53 53 54 55 56 57 58 60 59 60 65 68 70 70 68 70 70 73 79 80 80 84 88 91 92 92 93 93 92 92 92 93 94 94 94 95 96 97 98 99 100 101 100 99 100 100 101 102 103 104 106 107 107 107 107 107 109 110 111 111 113 115 117 119 120 122 124 126 128 129 130 131 131 131 133 133 134 134
47 48 49 50 50 51 52 53 54 56 57 57 58 59 60 62 63 61 62 66 71 74 74 72 69 70 77 81 83 86 89 91 91 93 93 92 91 91 92 93 93 93 93 94 95 97 98 99 99 99 99 98 98 99 100 101 103 105 107 108 107 106 105 105 106 107 108 109 110 113 114 116 117 119 121 124 125 127 129 130 130 130 131 132 133 134
50 50 50 50 51 52 52 53 54 56 57 58 59 60 61 62 65 65 64 63 66 72 76 76 71 70 75 81 83 86 90 92 92 92 92 90 90 90 91 91 91 90 91 92 94 96 97 98 97 97 97 97 98 98 99 101 103 105 105 106 106 106 105 103 102 103 103 104 105 108 111 112 114 115 117 120 123 125 127 128 129 129 129 130 132 133
52 52 52 52 52 53 53 54 55 56 57 58 59 61 63 63 65 68 68 67 67 71 76 78 74 71 73 79 85 86 88 90 90 89 87 86 85 86 87 87 87 87 90 91 92 94 95 96 96 96 97 98 99 98 98 100 103 104 104 103 104 104 103 102 101 99 98 98 99 101 104 106 108 110 113 116 119 122 124 126 127 128 128 128 129 131
54 55 55 55 55 56 56 57 57 58 58 60 61 62 65 66 68 69 70 70 71 73 77 80 78 73 71 77 85 85 85 87 85 83 82 82 81 82 82 83 84 85 88 89 89 91 93 94 95 95 97 100 101 99 98 100 102 103 103 103 103 102 101 99 97 96 94 93 93 94 95 98 100 104 107 111 115 118 121 123 124 125 126 127 127 128
57 59 60 61 61 61 61 61 61 61 61 61 62 63 65 67 68 70 70 71 73 74 78 81 82 78 73 76 84 85 85 84 81 81 82 81 81 80 80 82 83 83 85 87 87 89 91 92 94 96 98 99 100 99 97 98 100 103 104 104 103 103 102 100 96 93 92 90 89 89 89 90 92 94 98 103 108 111 115 119 120 121 122 124 125 125
63 65 65 66 66 65 64 64 63 63 63 62 62 63 65 67 68 70 69 70 72 73 75 78 81 82 76 76 83 86 85 82 81 82 82 81 80 79 79 81 82 83 84 86 87 88 89 90 93 95 96 96 96 96 96 96 97 100 102 103 102 102 102 101 99 96 94 91 90 89 89 89 89 88 89 93 98 102 106 111 114 116 117 118 120 122
68 68 68 67 67 66 65 65 65 64 64 63 61 61 63 66 67 68 68 68 69 71 75 76 78 83 79 76 81 84 82 82 84 83 81 80 79 78 78 79 80 83 84 84 85 86 87 89 91 91 91 91 91 91 92 92 93 95 96 97 97 97 97 97 97 96 94 92 90 89 89 89 90 89 86 86 89 93 97 101 105 109 110 112 114 116
70 69 68 67 66 65 65 64 64 64 64 63 61 59 59 62 65 66 66 67 67 68 73 75 77 83 84 82 83 80 80 83 84 83 82 81 80 78 79 79 80 82 84 85 86 85 84 85 87 86 85 86 86 87 88 89 89 89 88 89 88 89 89 88 88 88 88 87 85 83 84 85 86 87 86 84 84 87 90 93 97 100 103 104 105 107
72 70 69 67 66 66 64 64 65 65 65 65 64 61 59 58 60 62 63 63 63 64 69 71 75 81 85 87 85 78 77 81 81 81 82 81 79 78 79 80 81 82 83 86 88 86 83 83 84 83 82 81 82 83 85 86 85 84 83 82 81 80 80 80 79 80 80 80 78 77 77 77 79 81 81 81 81 83 85 87 89 93 96 97 97 98
74 73 71 70 69 68 67 66 67 68 68 67 66 64 62 59 56 57 58 56 55 60 67 70 74 79 83 86 83 78 78 78 76 78 79 79 78 76 77 80 81 82 83 84 86 83 81 80 81 82 80 79 79 78 79 80 79 78 77 76 73 72 72 72 72 73 74 73 72 72 71 71 72 73 75 76 77 78 80 80 82 85 88 91 92 92
76 75 74 73 72 72 71 70 70 70 70 70 70 69 67 65 60 57 57 53 50 56 64 69 75 80 86 86 82 79 79 77 76 78 78 78 78 77 78 80 80 81 82 82 81 80 77 75 76 79 78 76 75 75 75 74 73 72 71 69 66 65 65 65 65 65 66 67 67 67 67 67 67 68 69 70 71 73 74 75 76 78 81 84 87 88
78 78 77 76 76 75 75 74 73 73 72 72 74 73 72 71 68 65 63 59 54 54 61 69 75 82 89 87 82 80 80 79 79 79 78 78 80 79 79 79 79 79 79 78 77 76 75 73 71 72 73 72 70 70 69 69 68 66 65 64 61 60 60 60 59 58 59 61 61 62 63 64 64 64 66 66 67 68 69 69 71 73 75 78 81 83
79 81 81 80 80 78 76 75 74 74 73 72 73 73 72 73 72 69 68 67 63 60 64 71 75 81 88 85 80 81 81 80 80 80 80 80 80 80 79 79 79 77 76 75 73 71 71 70 68 67 66 65 64 63 62 62 62 61 60 59 57 56 56 55 54 55 56 56 57 58 59 60 61 62 63 63 64 65 65 65 66 69 72 74 75 78
79 81 82 82 82 80 78 77 76 75 74 72 73 74 73 74 75 72 67 66 67 64 65 71 77 84 89 83 79 81 82 81 82 81 80 80 81 82 81 79 77 74 73 72 71 71 70 68 66 64 63 61 60 59 57 57 57 56 55 55 53 53 53 52 52 53 53 53 54 55 56 57 58 59 60 61 62 62 63 63 64 66 68 71 72 74
81 82 83 84 84 84 82 80 79 78 77 76 75 76 75 75 76 77 71 66 64 61 60 65 77 89 92 85 81 83 83 83 83 81 80 79 81 82 80 77 74 72 71 70 71 71 71 69 66 65 64 62 60 58 56 55 55 54 52 51 51 51 51 51 51 51 51 51 52 53 53 55 56 57 58 59 59 60 61 61 61 63 65 68 70 71
84 84 85 87 87 87 87 85 84 82 82 81 79 78 78 76 77 79 78 73 68 63 58 59 72 89 91 84 86 87 85 84 82 80 80 79 79 80 78 76 75 73 71 71 71 71 71 69 66 64 64 62 60 58 56 55 54 53 52 50 50 50 50 50 50 50 50 49 50 51 52 53 54 55 55 55 55 57 58 58 59 60 62 65 67 68
88 88 87 89 90 90 90 88 87 87 86 85 83 82 81 81 80 79 81 83 79 73 66 60 69 88 90 84 88 89 86 84 81 78 79 79 78 77 76 75 74 72 71 70 69 69 69 68 65 62 61 60 59 57 55 54 52 51 50 49 49 49 49 49 48 48 48 48 48 50 51 51 51 51 51 52 52 54 56 56 57 58 59 61 64 65
91 91 90 90 91 91 91 90 89 89 89 87 86 85 84 83 82 81 81 85 87 84 79 72 75 87 90 86 89 89 86 84 81 77 77 79 79 76 74 74 72 69 67 66 66 65 65 65 63 60 58 57 56 55 53 52 50 49 48 47 47 47 47 46 46 46 46 47 47 47 48 49 49 49 48 48 50 52 53 54 55 57 58 59 61 62
93 94 93 93 93 93 92 92 91 91 91 89 87 86 87 86 87 86 81 81 85 86 85 83 84 90 92 89 92 93 89 87 84 79 77 78 79 76 73 72 69 66 64 61 61 61 61 62 61 59 56 54 53 52 51 50 48 47 46 46 45 45 44 43 42 43 43 43 44 43 44 46 46 46 46 46 48 49 50 51 53 55 57 58 58 60
95 96 96 95 95 96 96 95 94 93 93 92 89 88 89 89 89 90 87 83 84 84 83 78 79 86 91 89 91 92 89 86 84 83 79 76 75 73 70 69 66 64 62 59 57 58 58 59 59 58 56 53 51 50 49 48 47 45 44 43 43 42 41 39 39 39 39 40 41 41 41 43 44 44 44 45 46 47 48 49 50 52 54 56 57 58
98 98 98 96 95 95 95 94 93 94 94 94 93 91 91 91 89 90 90 89 88 88 86 77 72 79 86 84 85 87 86 84 82 81 79 74 70 69 67 66 64 61 59 58 56 56 57 57 57 57 56 54 51 48 46 45 44 43 42 41 40 39 38 37 36 36 37 38 39 39 40 40 41 43 43 44 45 45 46 47 49 50 52 53 54 55
99 100 101 100 98 96 95 95 94 94 95 96 96 94 92 91 90 89 88 88 87 88 92 87 76 77 82 81 81 83 84 82 80 78 77 73 69 66 65 64 63 60 57 56 55 55 56 56 55 55 55 54 52 49 46 43 41 40 39 38 39 39 37 35 35 35 35 35 37 38 38 38 39 40 41 43 43 43 44 45 47 48 50 51 52 53
101 101 103 104 103 102 101 101 100 99 99 97 96 95 93 91 90 90 88 86 84 84 91 95 87 80 81 82 81 81 81 78 75 73 74 73 69 66 64 63 61 59 56 54 53 53 53 53 53 53 53 53 52 50 47 45 41 38 36 35 35 37 37 36 34 34 34 34 35 35 35 36 37 37 39 40 41 41 41 42 43 45 47 48 50 51
103 103 104 106 106 105 105 105 103 103 101 98 96 96 95 93 91 90 87 85 84 82 84 91 93 88 86 87 86 84 81 75 71 71 70 70 68 66 64 63 61 59 56 54 52 51 51 51 51 52 52 51 51 50 48 45 42 39 38 37 35 35 35 36 35 33 33 34 34 34 33 33 34 36 37 38 39 39 39 39 40 41 43 45 47 49
105 106 106 107 108 107 106 106 105 104 102 100 98 97 96 94 92 91 89 86 86 83 79 81 86 86 84 85 86 85 81 73 69 69 69 69 69 67 65 64 63 61 59 56 54 53 52 52 52 52 52 52 51 50 48 45 42 39 37 37 37 36 35 34 34 32 32 33 33 34 33 33 34 35 36 36 37 37 38 38 38 39 40 41 43 45
107 107 108 108 109 109 107 106 105 104 104 103 101 99 96 95 93 93 93 91 89 89 86 83 85 86 84 83 83 82 80 73 69 69 70 69 69 68 66 64 62 60 58 56 54 53 52 52 52 51 51 51 50 50 48 46 43 40 37 35 35 35 35 35 33 32 31 31 32 33 34 34 34 35 35 35 35 35 36 37 37 37 38 39 40 42
108 108 109 110 110 110 109 108 107 106 105 104 102 99 96 95 94 93 92 91 91 93 93 92 90 90 90 88 86 84 81 76 72 71 70 68 67 66 64 62 60 57 55 53 51 50 49 48 49 49 49 48 48 47 46 45 43 41 39 37 34 33 33 33 33 32 31 30 31 32 33 34 34 35 35 34 34 34 35 35 36 36 37 37 38 40
109 110 110 110 111 110 109 109 109 108 106 105 102 100 98 97 96 94 91 89 88 88 90 92 91 90 90 90 89 89 87 81 76 72 68 65 63 63 63 62 61 59 57 54 51 49 47 45 45 45 46 47 47 46 44 43 42 41 39 38 36 33 31 31 32 32 32 31 31 32 32 32 33 34 34 34 34 34 34 35 34 35 35 37 37 38
110 110 111 111 111 111 111 110 110 108 107 105 103 102 100 98 97 96 95 92 90 88 87 87 88 87 86 85 85 87 88 85 77 71 67 64 63 62 61 62 62 61 59 56 53 50 47 45 42 41 43 44 45 45 44 42 41 40 39 38 37 35 32 30 30 31 32 32 32 31 31 31 31 31 32 33 34 35 34 34 34 34 35 36 35 36
112 112 112 113 113 113 113 112 112 110 108 106 105 103 102 99 97 97 96 94 93 94 92 90 89 86 83 81 80 82 85 84 77 71 68 66 64 62 60 59 59 59 57 55 53 50 48 46 44 41 41 42 43 43 43 42 41 40 39 38 38 36 33 31 30 30 30 31 31 31 30 30 29 29 29 30 32 33 34 34 34 35 35 35 35 35
114 115 115 115 115 114 114 114 113 113 111 109 107 106 103 101 99 97 97 95 93 94 94 93 90 87 85 84 82 81 82 82 78 73 70 67 64 62 59 57 57 56 55 54 53 50 48 47 45 44 43 42 42 43 43 42 42 40 38 38 38 37 35 33 31 30 29 28 29 31 30 29 28 27 26 26 28 30 32 33 34 34 34 35 35 36
116 117 117 117 118 117 117 116 115 115 114 112 110 108 105 103 100 98 97 97 95 94 93 91 89 88 88 87 85 82 80 80 78 74 70 67 65 63 59 56 55 54 53 53 52 50 48 47 45 45 45 44 43 43 43 43 43 42 40 38 38 38 37 34 32 31 30 28 28 29 30 29 28 27 25 24 24 27 29 31 32 33 34 34 34 34
118 119 119 120 120 119 118 118 118 117 116 114 112 110 109 106 103 100 98 98 97 96 93 91 90 91 89 86 83 80 78 77 78 76 73 69 66 64 61 57 54 53 52 51 50 47 45 44 43 42 43 42 42 43 43 42 42 42 41 39 38 37 36 35 33 31 30 29 29 29 29 29 29 28 26 25 24 25 27 28 28 29 29 30 30 31
120 122 122 122 122 122 120 119 118 117 116 116 115 114 112 109 106 104 101 99 98 96 95 93 92 89 87 84 81 77 74 73 74 74 73 71 68 66 65 61 57 54 52 52 51 48 45 42 41 40 40 39 38 39 41 41 41 41 40 39 38 38 36 34 32 30 29 29 30 30 29 29 28 28 27 26 24 24 25 25 24 25 25 26 27 28
122 123 124 124 124 125 124 122 120 119 118 118 117 115 114 111 108 104 101 99 98 97 96 95 91 88 85 84 81 77 72 69 69 69 69 69 68 67 66 65 61 58 55 52 51 50 48 46 43 41 40 39 37 36 36 37 38 38 39 38 38 38 37 35 32 30 29 29 30 30 29 29 28 27 26 25 24 24 24 24 24 24 25 25 26 26
123 124 126 127 127 127 127 126 125 123 121 120 118 116 114 112 109 105 101 98 98 98 96 93 90 88 87 85 83 80 75 70 67 67 66 66 66 66 65 64 62 60 58 56 54 51 49 47 45 44 42 40 38 36 35 34 34 34 35 36 36 36 36 35 32 30 30 30 30 29 28 28 26 25 24 24 23 23 23 23 23 23 24 24 25 25
125 126 128 129 130 130 129 128 127 126 124 122 120 117 113 111 109 106 103 100 97 97 96 94 91 88 87 87 85 84 82 77 73 71 69 67 67 67 67 65 62 58 57 56 55 54 51 48 46 45 44 41 39 37 36 35 33 33 32 32 33 33 33 32 31 30 30 29 29 28 27 26 25 24 23 22 22 22 21 21 21 21 22 22 23 23
126 128 129 131 131 132 132 130 128 126 125 122 121 119 116 111 108 107 106 104 101 98 97 96 93 90 88 87 86 85 84 83 80 77 74 70 68 68 67 66 63 60 57 55 52 52 51 49 46 45 43 41 39 38 37 36 35 33 32 31 30 31 30 29 29 28 28 27 27 26 26 25 24 23 22 21 20 20 19 19 19 19 20 20 20 20
128 129 131 133 133 134 135 134 131 129 127 124 122 120 118 115 112 110 108 107 105 102 99 97 96 92 89 88 88 86 84 83 81 78 76 72 69 67 66 64 62 60 59 57 54 52 51 49 47 45 43 41 40 38 37 36 35 33 32 31 30 29 28 27 26 25 24 24 25 25 25 24 23 22 22 20 19 18 18 19 19 18 18 18 18 18
129 131 133 135 136 136 138 138 136 133 130 127 124 121 121 120 118 115 111 108 106 103 100 97 95 93 91 89 88 86 84 82 80 77 74 72 70 68 66 64 62 59 58 57 54 52 51 49 47 46 44 42 40 39 37 35 34 32 31 30 28 27 26 24 24 23 23 23 23 23 23 23 22 21 21 20 19 18 18 18 18 17 17 16 16 16
130 133 135 137 139 140 141 142 140 137 133 131 128 126 124 122 119 116 113 110 107 104 101 98 96 93 91 89 87 86 83 81 78 75 72 70 69 67 66 64 62 60 59 57 55 52 51 50 48 47 45 42 40 39 39 37 35 32 31 29 27 26 24 23 23 22 22 22 22 22 21 21 20 20 20 19 19 19 18 18 16 15 15 15 15 15
130 133 136 137 139 141 142 142 141 138 135 133 131 128 125 122 119 116 114 112 110 107 104 100 98 95 92 89 87 85 82 80 78 75 72 70 69 68 66 64 62 59 58 57 55 52 50 49 48 46 45 42 40 40 40 39 37 34 32 30 28 26 24 23 22 22 21 20 20 20 19 19 19 19 18 18 18 18 17 17 15 14 13 13 13 13
131 134 136 138 139 140 140 141 141 139 136 132 130 127 125 122 120 117 115 113 111 110 107 103 100 96 93 90 88 86 84 81 79 76 74 72 70 69 67 64 62 61 59 58 56 54 51 49 48 46 44 42 40 39 39 39 37 36 34 32 30 28 25 23 22 21 19 19 19 19 18 18 18 17 17 16 16 16 15 14 13 12 11 11 12 12
132 134 136 138 140 140 140 141 142 142 138 134 130 127 124 122 120 118 116 114 111 109 107 104 100 97 94 91 89 87 85 83 80 77 74 72 71 68 66 64 62 61 60 59 57 54 52 50 48 46 44 42 40 39 39 38 37 36 35 33 31 29 26 23 21 20 19 18 18 18 17 17 17 16 15 15 14 14 13 12 11 11 10 10 10 10
132 134 136 138 140 142 142 141 142 142 141 137 133 130 126 122 120 117 115 113 110 108 105 104 102 99 95 92 89 88 86 84 81 77 74 71 70 68 65 62 60 59 59 58 56 54 51 50 47 45 43 42 40 39 39 38 36 36 35 33 31 29 26 23 22 20 19 18 18 17 17 16 15 15 14 13 13 13 12 11 10 10 9 9 9 9
133 135 137 139 141 142 143 143 142 142 141 139 135 131 128 124 121 118 115 112 110 108 106 104 102 100 98 94 90 88 86 84 80 77 74 71 70 69 66 63 60 58 57 57 55 53 50 49 47 44 43 41 40 39 38 37 36 35 34 32 30 27 25 24 22 21 19 18 17 16 16 15 15 14 14 13 13 12 12 11 10 10 9 9 9 9
133 136 137 139 142 144 146 147 146 145 143 140 137 133 130 127 123 120 117 114 112 111 108 105 102 99 97 95 91 87 84 82 79 77 74 71 69 68 66 64 61 59 57 57 56 53 50 47 45 44 42 41 40 39 38 37 35 34 32 30 28 26 25 24 23 21 20 18 17 16 16 15 15 14 14 13 13 13 12 11 11 10 9 9 8 8
134 137 138 140 142 145 147 149 150 149 147 144 140 136 132 128 125 121 119 116 114 112 110 107 104 100 96 93 91 88 85 82 80 77 74 72 70 69 67 63 61 59 58 57 56 54 50 47 45 44 43 41 40 39 38 36 35 33 31 29 27 25 24 23 22 21 20 18 17 17 16 15 15 14 14 14 13 12 12 11 11 10 9 9 8 8
Wind_Direction
319 319 319 318 317 316 314 313 312 311 310 308 307 305 304 303 303 302 300 300 299 299 299 299 299 299 297 297 297 296 295 294 293 293 292 291 289 288 288 287 286 286 286 286 285 285 284 283 282 281 279 278 278 277 276 275 274 272 271 269 266 264 262 260 258 256 254 254 253 253 253 254 254 254 254 254 254 253 253 253 252 252 252 252 252 253
323 323 322 320 319 318 317 315 314 312 311 310 309 308 306 305 304 304 302 301 300 299 300 300 301 301 299 298 297 296 295 294 294 293 292 291 290 290 289 289 288 288 288 288 287 286 285 283 282 280 279 279 278 278 278 277 276 274 273 271 268 265 263 260 258 256 254 253 252 251 251 251 252 252 252 253 253 253 252 252 252 251 251 251 252 252
325 324 323 322 322 321 319 318 316 314 313 312 311 310 308 307 305 305 304 304 303 302 301 300 300 300 299 298 297 296 295 294 294 293 292 291 291 291 291 291 291 291 291 290 289 287 285 283 282 281 281 280 280 279 278 277 276 275 273 271 269 267 264 262 260 258 255 254 252 251 250 250 250 250 250 251 251 251 251 251 250 250 251 251 251 251
326 326 326 326 325 324 322 321 319 318 316 315 314 312 311 309 307 306 305 305 305 305 303 301 301 300 299 298 298 297 295 295 294 294 294 294 294 295 295 294 294 293 292 290 288 286 285 284 283 283 283 282 281 279 277 276 274 273 272 271 271 269 266 264 262 260 258 256 255 254 252 251 250 250 250 250 250 250 250 250 249 249 249 249 250 250
331 330 330 329 328 327 326 325 323 321 319 318 316 314 313 311 310 309 307 307 306 305 304 302 302 302 300 299 299 298 297 297 296 296 296 297 297 297 296 294 294 293 291 289 287 287 286 286 285 285 284 282 280 278 277 275 274 272 271 271 271 271 270 268 266 263 261 259 258 256 255 254 253 252 251 251 251 250 250 250 250 249 248 248 248 249
336 335 335 333 333 332 331 329 327 324 323 321 319 318 316 314 313 312 311 310 309 307 305 304 304 304 303 302 300 299 297 297 296 296 298 298 298 297 295 295 294 293 291 289 289 288 288 287 286 285 284 282 279 278 277 275 274 274 274 274 273 273 273 273 271 269 267 264 261 259 258 257 256 255 254 253 253 253 252 251 250 250 249 248 247 247
342 342 341 339 339 337 335 333 331 328 326 324 323 321 318 316 315 314 313 313 312 310 308 307 306 306 306 304 300 300 299 298 299 301 302 301 300 299 299 298 295 293 291 290 289 288 287 286 285 283 281 280 280 279 278 277 277 277 277 277 277 276 276 275 274 273 271 268 266 263 261 260 258 256 255 254 254 254 254 253 252 251 251 250 249 248
347 346 345 344 342 341 339 336 334 331 328 327 325 323 320 318 316 315 315 314 313 312 310 309 309 309 310 307 304 303 302 303 306 307 306 306 305 303 302 299 296 294 292 290 288 286 284 283 282 281 280 280 281 281 279 278 277 277 277 277 277 277 277 277 276 275 274 273 271 269 267 264 261 258 256 256 255 254 254 254 254 252 251 251 250 249
350 349 347 346 344 342 340 338 335 332 330 329 327 325 322 319 317 316 316 315 314 313 312 312 312 311 312 310 307 306 307 310 311 310 309 309 307 305 302 299 296 294 291 289 287 285 283 281 279 279 280 280 280 280 279 276 275 274 275 275 275 275 276 277 278 278 277 276 275 273 272 270 267 263 259 257 256 256 255 255 255 254 252 251 250 249
352 351 349 347 344 342 340 337 335 333 331 330 329 326 322 319 318 317 318 317 317 317 315 315 314 312 312 312 309 310 314 316 314 312 311 309 307 304 301 299 297 294 291 289 286 284 283 282 281 282 283 283 282 281 280 278 276 275 275 276 276 276 276 276 277 277 277 276 275 274 272 271 269 267 263 260 258 256 255 255 255 255 254 252 250 249
352 352 350 347 345 344 340 337 335 333 332 331 330 329 325 322 321 320 321 320 321 321 317 316 316 314 314 313 312 316 320 317 315 315 314 311 309 307 304 302 300 297 295 294 291 288 287 288 288 288 288 287 286 285 284 282 281 280 280 279 279 279 278 277 276 276 275 275 274 272 271 269 268 267 266 263 260 258 256 255 255 255 254 253 251 249
353 353 352 349 347 345 342 339 337 336 336 335 333 332 330 327 325 323 323 323 324 322 319 319 318 316 315 312 314 321 321 317 316 316 314 312 311 309 307 305 302 301 300 298 295 294 294 295 294 293 291 289 288 287 286 286 285 285 284 283 282 281 280 279 278 276 275 275 274 273 271 269 267 266 265 264 262 261 258 256 255 255 255 254 252 249
354 354 353 351 349 348 346 343 340 339 339 337 334 334 334 332 330 327 326 327 329 327 324 322 320 317 314 313 318 324 320 317 318 316 314 313 311 309 308 306 305 303 300 296 295 297 298 297 296 294 293 291 290 289 288 287 287 286 285 285 284 283 281 279 278 277 276 275 275 273 272 269 267 265 265 264 263 262 260 258 256 255 254 254 253 250
355 355 354 353 352 351 349 347 344 343 342 339 337 338 337 336 335 333 331 333 337 334 329 325 323 319 316 317 323 325 320 320 320 317 316 316 314 313 311 308 305 302 299 298 300 301 300 298 296 295 294 294 293 291 290 289 289 288 287 287 285 284 282 279 277 276 275 274 274 273 272 270 268 266 265 264 263 262 261 259 258 256 254 253 253 251
356 356 356 354 354 354 351 349 346 345 345 343 340 340 340 338 337 337 337 338 340 340 335 330 327 322 318 321 327 325 323 323 322 320 320 319 317 314 311 308 305 303 303 304 304 303 301 299 297 295 294 294 293 292 291 291 291 290 289 288 287 285 282 279 277 276 275 274 272 271 271 270 268 266 265 263 262 260 259 258 258 256 255 253 252 252
359 357 357 356 356 355 353 351 349 347 346 345 341 340 341 338 338 339 340 339 340 342 339 333 329 323 319 324 328 326 325 325 324 324 323 321 318 316 312 309 307 308 308 307 306 304 302 300 299 297 296 295 295 294 293 292 291 291 290 289 288 285 282 280 279 278 276 275 273 271 269 268 267 265 264 263 261 259 257 256 255 254 254 253 252 251
1 359 358 358 357 356 355 353 352 350 348 347 344 343 343 340 338 339 340 341 341 342 341 335 331 325 323 327 329 327 327 328 327 326 323 323 321 317 313 311 310 311 311 310 309 306 304 303 303 302 301 299 298 297 296 295 294 293 292 290 288 286 284 282 281 280 278 276 274 272 269 267 266 264 263 262 260 259 257 254 252 252 251 251 251 250
3 1 359 358 358 357 357 355 354 352 350 350 348 346 344 342 340 339 340 342 342 342 341 339 335 329 327 330 330 329 330 329 328 327 325 325 321 316 314 314 314 315 314 313 311 309 308 307 307 306 305 304 303 301 300 298 297 296 294 292 289 287 285 284 283 281 280 278 276 273 270 268 266 264 263 262 261 260 258 255 252 251 250 249 249 248
3 3 1 359 359 358 358 356 355 354 353 352 350 348 346 344 342 341 340 342 344 342 341 344 341 331 329 332 332 331 332 330 329 329 327 325 320 316 318 319 318 318 317 315 313 311 309 309 309 308 307 306 305 304 302 301 299 298 296 294 291 289 287 286 285 283 281 280 277 275 272 269 267 265 264 263 262 261 260 257 255 253 251 250 249 248
3 4 3 1 360 359 359 357 355 355 354 353 351 349 347 345 344 344 342 342 344 344 341 346 345 335 331 334 333 332 333 331 329 330 328 325 320 320 322 321 319 319 317 315 312 310 309 308 308 307 306 305 304 304 303 301 300 298 296 295 292 290 289 287 286 285 283 281 278 276 274 271 269 267 265 264 263 262 261 259 257 255 253 251 250 248
3 4 4 3 1 0 360 358 356 355 354 353 351 349 348 346 345 346 346 344 344 344 343 346 347 339 333 334 334 332 333 331 330 332 332 327 323 324 324 321 319 318 316 314 312 310 308 308 308 307 306 305 304 303 303 301 300 298 296 294 292 290 288 287 286 284 283 281 279 277 275 273 271 269 267 264 262 261 260 259 258 256 254 252 251 249
4 3 4 4 2 1 1 359 357 355 355 355 352 350 348 348 347 346 348 348 345 344 344 346 347 340 334 335 335 333 334 332 332 336 334 328 325 326 324 320 320 319 316 314 312 310 310 309 309 309 307 306 305 305 304 302 301 299 297 295 292 290 288 286 284 283 281 279 278 277 276 275 273 271 268 265 262 261 260 259 257 256 255 253 251 250
4 3 4 5 3 1 1 0 358 356 355 356 355 352 350 350 348 346 347 350 347 344 344 346 346 340 335 335 335 333 334 333 335 338 334 328 327 326 323 321 321 320 318 317 315 313 312 312 311 310 309 309 308 307 306 305 303 301 299 297 294 292 290 288 284 282 280 278 277 276 274 274 273 272 269 266 263 261 260 259 258 257 256 254 253 251
5 3 3 4 4 2 1 0 359 357 356 356 356 355 353 350 349 347 347 349 347 343 342 345 348 342 335 335 335 333 333 335 338 338 332 328 328 326 325 324 323 322 321 320 319 317 315 314 312 312 311 310 309 309 308 307 305 304 302 300 298 295 292 290 286 282 280 278 277 275 274 273 272 271 270 267 265 262 261 260 259 258 257 256 254 253
6 4 2 3 3 2 1 1 360 358 357 357 356 356 354 351 349 348 349 349 347 344 341 343 347 344 337 335 336 335 335 337 340 338 331 329 330 329 327 326 326 326 325 324 322 319 317 315 314 313 312 311 311 311 311 309 308 306 304 303 300 298 295 291 287 284 281 278 276 275 274 273 272 271 269 267 265 263 261 260 259 258 258 257 255 254
8 6 3 2 3 2 1 1 0 359 359 358 356 355 354 352 350 349 350 350 348 347 345 342 344 345 340 337 338 338 336 337 340 338 332 330 332 332 331 329 328 328 328 326 324 320 318 316 314 313 313 312 313 313 313 313 311 309 307 304 301 299 297 294 289 286 282 279 276 274 273 273 272 272 270 268 266 264 262 260 260 259 258 257 256 254
9 8 5 3 3 3 1 1 0 359 358 357 356 355 354 353 351 349 350 351 348 350 349 344 343 345 343 340 340 339 337 337 341 340 334 332 334 334 333 332 331 331 329 328 326 323 320 318 316 315 314 313 313 314 315 315 315 314 312 309 305 301 298 295 293 290 286 283 279 276 272 271 271 271 271 270 269 268 266 264 262 261 260 258 256 255
11 10 8 5 4 4 2 1 1 359 358 357 356 355 354 353 351 348 351 352 349 349 350 348 345 344 343 341 341 339 335 337 343 342 338 336 336 336 336 335 334 333 331 330 328 326 323 320 318 317 316 316 316 316 317 316 316 315 314 311 307 303 299 296 294 292 289 286 283 279 275 271 268 268 270 271 271 271 270 268 266 264 262 260 258 256
11 10 9 7 6 5 4 2 1 360 358 357 356 355 354 353 351 350 351 352 349 348 349 350 348 346 344 343 341 338 335 338 344 344 342 341 338 337 337 336 334 332 330 330 329 326 324 322 320 319 318 318 318 318 318 318 317 315 312 309 305 302 299 297 295 292 289 286 284 281 278 274 270 268 268 268 269 270 270 269 268 266 264 262 260 257
11 11 10 9 7 6 5 3 2 0 359 358 357 356 355 354 352 352 353 352 350 350 349 350 350 349 347 344 341 339 338 340 345 347 345 343 340 338 337 335 333 332 330 330 329 326 324 322 320 319 319 319 319 318 318 317 316 315 312 308 304 300 297 296 295 293 290 287 284 282 280 279 276 273 270 268 267 266 266 265 265 264 263 261 259 257
11 11 10 9 8 7 5 4 3 1 359 358 357 356 356 356 354 352 354 354 352 351 351 351 351 350 349 346 343 341 340 341 345 346 344 343 341 339 338 337 335 334 333 331 330 328 325 323 321 320 320 319 319 318 318 317 316 315 313 310 306 302 298 296 294 293 291 289 286 285 284 283 281 279 275 272 268 265 263 262 262 261 260 258 257 256
11 11 10 9 8 7 6 5 3 2 0 358 358 357 357 357 355 353 354 354 352 352 353 352 351 351 349 346 345 343 340 339 343 344 343 344 344 341 340 339 337 336 335 332 331 329 327 325 323 321 320 319 318 317 318 318 317 316 315 312 309 306 302 299 296 294 292 291 290 288 287 284 283 281 279 276 272 268 265 263 261 260 258 257 256 255
11 10 10 9 8 8 6 6 4 2 1 359 358 358 358 358 357 354 354 355 353 352 353 353 353 351 349 347 347 345 341 339 342 344 344 345 345 344 342 340 338 336 335 333 331 330 328 326 324 323 321 320 318 318 318 318 318 318 317 315 312 309 307 304 300 297 294 293 292 291 289 287 285 283 280 277 274 271 268 265 262 261 260 259 257 255
11 10 10 9 8 8 7 6 4 2 1 0 359 359 358 358 358 356 354 355 355 353 353 353 352 351 350 350 349 348 344 340 341 344 344 344 344 344 343 342 339 337 336 334 332 331 330 328 327 326 325 323 322 320 320 320 320 320 319 317 315 313 311 309 306 302 300 297 295 293 291 289 286 283 280 277 274 271 267 264 262 261 261 260 259 258
11 10 10 9 8 8 7 6 5 3 2 1 360 359 359 359 359 357 355 355 355 354 353 353 352 353 353 352 350 349 347 343 341 342 343 344 344 343 344 344 342 339 338 336 334 334 332 330 330 329 327 325 324 323 322 321 321 321 321 319 316 314 313 313 311 308 305 302 298 294 292 290 288 284 280 276 272 267 265 263 262 261 261 261 261 262
11 10 10 9 8 7 7 6 5 4 2 1 0 360 359 359 359 358 357 356 355 354 353 354 355 355 353 351 349 349 348 345 343 342 343 344 344 343 344 346 345 342 340 337 335 335 335 332 331 329 326 325 325 324 323 322 321 320 320 319 317 315 314 314 312 310 308 305 300 296 293 291 291 289 286 282 276 270 268 267 265 264 263 263 262 261
11 11 10 10 8 7 7 6 5 4 3 1 1 0 360 359 359 358 357 356 355 354 354 355 356 355 352 350 349 349 350 348 346 343 343 343 344 345 344 346 346 345 342 339 337 337 338 336 333 330 327 326 326 325 323 322 321 320 319 318 317 316 315 315 313 311 308 304 301 299 297 296 295 294 293 290 284 278 275 273 271 268 265 263 260 259
11 11 10 10 9 8 7 6 5 5 4 3 2 1 360 359 359 358 357 356 355 355 355 356 356 355 352 349 348 348 350 351 348 345 344 344 345 346 346 346 346 346 343 342 340 339 340 339 337 335 332 330 329 327 325 323 320 318 318 318 318 318 317 316 316 313 309 304 302 302 302 301 299 296 295 292 288 283 279 276 272 269 266 263 260 259
11 11 11 10 10 9 8 7 6 5 4 4 2 2 1 360 358 358 357 357 356 355 355 356 356 355 353 350 349 348 349 351 351 348 347 347 346 346 347 347 348 347 344 343 342 341 341 341 339 337 335 333 331 330 329 326 322 319 318 318 318 318 318 317 316 313 309 305 306 306 305 303 300 297 295 292 290 285 281 277 274 270 267 265 262 261
11 11 11 11 10 9 8 8 7 5 5 4 2 1 1 0 359 357 357 357 358 357 356 355 356 357 354 351 350 350 350 351 352 350 350 350 348 347 348 348 349 348 346 344 342 341 341 343 342 339 336 335 335 334 333 331 328 325 323 321 319 318 317 316 314 311 309 308 309 307 305 301 300 298 295 293 291 288 285 282 277 274 270 266 264 263
12 11 11 11 11 9 8 8 7 6 5 4 3 1 1 0 360 358 358 357 358 358 357 356 356 357 356 353 351 352 351 351 352 351 350 350 350 349 348 348 348 347 346 345 344 341 341 343 343 340 337 337 337 338 337 335 333 330 328 325 323 320 317 316 314 312 311 310 308 305 303 301 300 299 297 295 293 291 288 283 279 275 271 269 267 265
12 12 12 12 11 10 9 7 7 6 5 4 4 2 0 360 0 0 359 358 357 358 358 357 356 357 357 354 352 352 353 352 352 351 350 349 350 350 349 349 348 347 346 345 345 343 343 344 343 341 339 339 339 340 340 339 336 333 332 330 327 323 320 317 315 313 311 308 305 303 303 303 303 302 300 299 296 292 288 284 280 278 276 273 270 266
12 12 12 12 11 11 10 8 7 7 6 4 3 2 1 1 0 0 360 359 358 357 358 358 357 357 357 356 353 353 353 353 352 351 350 348 349 349 349 349 349 348 346 346 346 345 344 344 344 342 341 341 341 342 342 341 338 336 335 333 329 326 322 319 316 313 310 307 306 305 306 307 306 305 303 301 297 293 288 285 284 283 281 278 274 271
13 12 12 12 12 11 11 9 7 7 6 5 4 3 2 1 0 360 359 358 358 358 358 358 358 357 357 357 354 353 354 353 352 351 350 349 348 349 350 350 350 348 346 347 348 347 346 346 345 344 343 343 343 343 343 342 341 339 338 335 331 328 324 320 317 314 312 311 311 310 311 310 309 307 304 302 299 296 294 292 292 290 287 284 282 280
13 13 12 13 13 12 11 10 8 7 7 6 5 4 3 1 0 360 359 359 358 358 358 358 358 357 357 357 355 354 354 354 353 352 351 350 349 350 351 350 350 348 347 347 349 348 347 347 346 345 344 343 344 345 344 342 341 341 339 336 334 332 328 324 321 319 317 316 316 315 315 314 312 310 307 305 303 301 300 301 301 299 294 291 288 286
13 13 12 12 13 13 12 11 9 7 7 6 5 4 3 2 1 0 360 359 358 358 358 358 358 357 357 357 356 354 354 355 354 353 352 351 350 351 351 351 350 349 347 349 350 349 349 349 348 346 345 344 345 346 345 342 342 340 338 337 337 335 333 331 327 324 322 322 321 320 319 318 316 314 312 310 308 307 307 309 309 306 302 297 292 288
13 13 13 12 12 13 13 12 10 8 7 7 6 5 4 3 2 1 0 360 359 358 357 357 357 357 356 357 356 355 354 355 355 354 353 351 350 351 352 352 351 349 347 349 351 350 349 350 349 347 346 346 346 347 345 343 342 341 339 339 339 338 337 336 333 330 329 328 327 326 324 323 322 320 319 317 316 315 316 317 316 313 308 302 295 289
12 12 13 12 12 12 12 13 12 10 8 8 7 5 4 4 3 2 1 0 359 358 358 358 358 357 356 356 357 356 355 355 354 353 353 352 350 351 352 353 352 350 348 349 352 351 349 350 350 348 348 347 347 347 346 345 343 342 341 341 340 340 340 338 337 337 335 334 333 331 329 328 329 328 327 326 324 324 325 325 323 321 316 308 300 296
12 12 12 12 12 12 12 12 12 11 9 8 7 6 5 4 3 2 1 0 359 359 359 359 358 358 356 356 357 357 356 355 354 353 353 352 351 351 352 353 353 352 349 349 352 352 350 350 350 349 349 348 348 349 348 346 346 345 344 343 342 341 342 341 341 341 340 339 338 336 335 335 336 336 335 333 333 334 334 333 333 330 323 317 313 310
11 11 12 12 12 12 12 11 11 10 9 8 7 6 5 4 3 2 1 1 0 359 359 359 359 358 357 356 356 357 356 355 354 353 353 353 352 352 353 353 353 352 351 350 352 352 351 351 351 352 351 350 349 350 350 349 348 348 346 344 343 343 344 345 345 344 344 344 344 344 345 345 344 343 341 340 341 341 340 339 340 337 334 334 331 326
11 11 12 12 12 12 12 11 11 10 10 9 7 6 5 4 4 3 2 2 1 360 359 358 358 358 358 356 355 356 356 356 355 354 354 354 353 353 353 354 354 353 352 351 352 352 352 352 354 354 353 351 351 353 353 351 351 350 348 345 344 346 348 348 347 347 347 348 350 353 354 352 350 348 348 347 346 345 344 345 348 347 346 348 345 338